Flag for Moldova Weather past 2 weeks in Cahul, Moldova

Now
79 °F

Overcast.


Feels Like: 80 °F
Forecast: 56 / 86 °F
Wind: 2 mph from East

Location: Galati

Current Time: May 24, 2015 at 9:04:03 PM

Latest Report: May 24, 2015 at 8:00 PM


Visibility: 13 mi

Pressure: 29.80 "Hg

Humidity: 46%

Dew point: 57 °F

Location of CahulLocation

Historic Weather in Cahul — Graph

°F

Cahul temperature yesterday

Maximum temperature yesterday: 84 °F (at 3:00 PM)
Minimum temperature yesterday: 59 °F (at 5:00 AM)
Average temperature yesterday: 73 °F

Past Weeks' High & Low Weather Summary

 TemperatureHumidityPressure
High84 °F (May 23, 3:00 PM)99% (May 20, 6:00 AM)30.27 "Hg (May 20, 6:00 AM)
Low51 °F (May 11, 6:00 AM)22% (May 13, 4:00 PM)29.68 "Hg (May 14, 7:00 PM)
Average67 °F54%30.00 "Hg
* Reported May 9 7:00 PM — May 24 7:00 PM, Cahul, Weather by CustomWeather, © 2015

Note: Actual official high and low records may vary slightly from our data, if they occured in-between our weather recording intervals... More about our weather records

Advertising

Cahul weather history for previous 24 hours

 ConditionsComfort  
Time TempWeatherWind HumidityBarometerVisibility
7:00 PM
Sun, May 24
82 °FOvercast.2 mph37%29.80 "Hg12 mi
6:00 PM84 °FOvercast.1 mph36%29.82 "Hg12 mi
5:00 PM84 °FPartly sunny.2 mph35%29.83 "Hg12 mi
4:00 PM84 °FScattered clouds.2 mph35%29.84 "Hg12 mi
3:00 PM83 °FScattered clouds.2 mph34%29.85 "Hg12 mi
2:00 PM82 °FPartly sunny.1 mph34%29.86 "Hg12 mi
1:00 PM79 °FPartly sunny.1 mph40%29.87 "Hg12 mi
12:00 PM77 °FPartly sunny.2 mph44%29.87 "Hg12 mi
11:00 AM74 °FPartly sunny.1 mph48%29.88 "Hg12 mi
10:00 AM71 °FScattered clouds.2 mph50%29.87 "Hg12 mi
9:00 AM66 °FScattered clouds.2 mph62%29.87 "Hg12 mi
8:00 AM60 °FScattered clouds.2 mph76%29.87 "Hg12 mi
7:00 AM58 °FPassing clouds.2 mph77%29.87 "Hg12 mi
5:00 AM60 °FClear.2 mph77%29.86 "Hg12 mi
4:00 AM60 °FClear.2 mph74%29.86 "Hg12 mi
3:00 AM61 °FClear.2 mph75%29.87 "Hg12 mi
2:00 AM62 °FClear.1 mph76%29.88 "Hg12 mi
1:00 AM65 °FClear.2 mph69%29.88 "Hg12 mi
11:00 PM
Sat, May 23
67 °FClear.1 mph63%29.88 "Hg12 mi
10:00 PM70 °FClear.1 mph53%29.88 "Hg12 mi
9:00 PM73 °FClear.2 mph51%29.86 "Hg12 mi
Weather by CustomWeather, © 2015

See weather overviewHow to use our weather pages